Temperature
18 18 18 17 17 17 16 16 16 16 16 16 16 16 16 16 16 16 16 16 16 16 16 16 16 16 16 16 16 16 16 16 16 16 16 15 15 15 15 15 14 15 14
18 18 18 17 17 17 16 16 16 16 16 16 16 15 15 15 15 15 15 15 15 15 15 15 15 15 15 15 15 15 15 15 15 15 15 15 15 14 14 15 14 14 14
18 18 17 17 17 16 16 16 16 16 15 15 15 15 15 15 15 15 15 15 15 15 15 15 14 14 14 15 15 15 15 15 15 15 15 14 14 14 14 14 14 14 14
18 18 17 17 17 16 16 16 15 15 15 15 15 15 15 15 15 14 14 14 14 14 14 14 14 14 14 14 14 14 14 14 14 14 15 14 14 14 14 14 14 14 14
17 17 17 17 16 16 16 15 15 15 15 15 15 15 15 14 14 14 14 14 14 14 14 14 14 14 14 14 14 14 14 14 14 14 14 14 14 14 14 14 14 14 14
17 17 17 16 16 16 15 15 15 15 15 15 15 14 14 14 14 14 14 14 14 13 13 13 13 13 13 14 14 13 13 13 13 14 14 14 13 13 13 14 14 14 14
17 17 16 16 16 15 15 15 15 15 14 14 14 14 14 14 14 14 14 13 13 13 13 13 13 13 13 13 13 13 13 13 13 13 13 13 13 13 13 13 13 13 13
17 16 16 16 16 15 15 15 15 14 14 14 14 14 14 14 14 14 14 13 13 13 12 12 12 12 12 12 12 12 12 12 12 12 12 12 12 12 12 12 12 12 13
16 16 16 16 16 15 15 15 15 14 14 14 14 14 13 13 14 13 13 13 12 12 12 12 12 12 12 12 12 11 11 12 12 12 12 12 12 12 12 12 12 13 13
16 16 15 15 15 15 15 14 14 14 14 14 13 13 13 13 13 13 13 12 12 12 12 12 12 12 12 12 11 11 11 11 11 11 11 11 12 12 12 12 12 12 13
15 15 15 15 15 15 14 14 14 14 13 13 13 13 13 13 13 13 13 12 12 12 12 12 12 12 11 11 11 11 11 11 11 11 11 11 11 12 12 12 12 12 12
15 14 14 14 14 14 14 14 13 13 13 13 13 13 12 12 12 12 12 12 12 11 11 11 11 11 11 11 11 11 11 11 11 11 11 11 11 12 12 11 11 11 12
14 14 14 14 14 14 13 13 13 13 13 13 13 12 12 12 12 11 11 11 11 11 11 11 11 11 10 10 10 11 11 10 11 11 11 11 11 11 11 11 11 11 11
14 13 13 13 13 13 13 13 13 12 12 12 12 12 12 12 11 11 11 11 11 10 10 10 10 10 10 10 10 10 10 10 10 10 11 11 11 11 11 11 11 11 11
13 13 13 13 13 13 12 12 12 12 12 11 11 11 11 11 11 11 11 10 10 10 10 10 10 10 10 10 10 10 10 10 10 10 10 10 10 11 11 11 11 11 11
13 12 13 13 13 13 12 12 12 12 11 11 11 11 11 11 11 10 10 10 10 10 9 10 10 10 10 10 10 10 10 10 10 10 10 10 10 10 10 10 10 10 11
12 12 12 12 12 12 12 12 12 12 11 11 11 11 10 10 10 10 10 10 10 9 9 9 9 9 9 9 9 9 10 10 9 9 9 9 10 10 10 10 10 10 10
12 12 12 12 12 12 12 12 12 11 11 11 11 10 10 10 10 10 10 10 10 9 9 9 9 9 9 9 9 9 9 9 9 9 9 9 9 9 9 10 10 10 10
12 12 11 11 11 11 11 11 11 11 11 11 11 10 10 10 10 10 9 9 9 9 9 9 9 9 9 9 9 9 9 9 9 9 9 9 9 9 9 9 9 9 9
11 11 11 11 11 11 11 11 11 11 11 11 10 10 10 10 10 9 9 9 9 9 9 8 8 8 8 8 8 8 8 8 8 8 8 9 9 9 9 9 9 9 9
11 11 11 11 11 11 11 11 11 10 10 10 10 10 9 9 9 9 9 9 9 8 8 8 8 8 8 8 8 8 8 8 8 8 8 8 8 8 8 8 9 9 9
11 11 11 11 11 10 10 10 10 10 10 10 10 9 9 9 9 9 9 9 8 8 8 8 8 8 7 7 7 7 7 7 7 7 7 7 8 8 8 8 8 8 8
10 11 11 10 10 10 10 10 10 10 10 10 9 9 9 9 9 9 8 8 8 8 8 7 7 7 7 7 7 6 6 7 7 7 7 7 7 7 7 7 8 8 8
10 10 10 10 10 10 10 10 9 9 9 9 9 9 9 8 8 8 8 8 8 8 7 7 7 7 6 6 6 6 6 6 6 6 6 6 6 7 7 7 7 7 8
10 10 10 10 10 10 10 9 9 9 9 9 9 8 8 8 8 8 8 8 7 7 7 7 7 6 6 6 6 6 6 6 6 6 6 6 6 6 6 7 7 7 7
10 10 10 10 10 9 9 9 9 9 9 8 8 8 8 8 8 8 7 7 7 7 7 7 6 6 6 6 6 6 6 6 6 6 6 6 6 6 6 6 7 7 7
Wind_Speed
6 5 4 3 3 2 2 1 1 1 1 0 1 1 1 1 1 1 2 2 2 2 2 2 2 3 2 2 2 2 3 3 3 3 1 1 1 3 1 2 3 3 4
6 5 5 4 3 2 1 1 1 1 0 1 1 1 1 1 2 2 3 2 2 2 2 2 3 2 2 3 2 3 3 3 4 3 3 2 2 3 3 4 3 3 3
6 5 5 4 3 2 1 1 1 0 1 1 1 1 2 2 2 2 2 2 2 2 2 2 3 2 3 2 3 3 3 3 3 4 3 2 3 3 3 4 3 3 4
6 5 5 4 3 2 2 1 1 1 1 1 1 1 2 2 2 2 2 2 2 2 2 2 3 3 3 3 3 3 3 3 3 4 4 3 3 3 3 3 3 3 3
5 5 4 4 3 3 2 2 1 1 1 1 1 2 2 2 2 2 2 2 2 3 3 3 2 2 3 3 4 3 3 4 4 4 4 4 3 2 3 4 4 3 3
5 4 4 4 4 3 3 2 2 1 1 1 2 2 2 1 3 3 3 2 2 3 3 3 3 2 1 1 2 4 5 5 5 5 5 4 4 4 3 4 4 4 3
5 4 4 4 3 3 3 3 2 2 2 2 1 1 1 1 2 1 3 3 3 3 3 3 4 2 1 2 2 4 4 5 5 6 6 5 5 4 4 5 4 5 4
5 4 4 4 4 3 3 3 3 2 1 1 1 1 1 1 2 2 4 4 3 3 3 4 4 3 2 3 4 4 4 4 4 5 4 5 4 4 5 6 6 6 6
4 4 4 4 3 3 3 2 2 1 1 1 1 1 1 1 2 2 4 3 3 4 3 3 3 3 2 4 4 5 5 4 4 4 3 4 4 5 6 6 6 6 5
3 3 3 3 3 2 2 2 1 1 1 1 0 1 1 1 2 2 5 3 3 3 3 3 2 1 1 3 4 5 6 5 5 5 6 8 8 8 8 7 7 6 5
2 2 2 2 3 2 1 1 1 1 1 0 0 0 0 1 1 2 4 3 3 4 4 3 1 2 1 4 6 6 5 6 7 7 6 6 6 6 6 7 6 7 6
3 2 2 2 2 2 2 1 1 1 2 1 1 1 1 0 0 1 0 3 5 4 4 4 2 0 4 6 6 4 5 7 7 6 6 6 6 6 5 6 6 7 7
3 3 2 2 2 2 2 2 2 2 2 1 1 1 1 1 1 4 3 4 5 4 4 3 3 4 6 6 6 6 7 7 6 6 6 6 6 6 6 5 6 7 9
3 3 2 2 1 1 1 2 2 1 1 1 2 2 2 2 2 2 2 2 4 4 4 3 5 7 8 6 5 6 6 6 6 7 7 6 6 6 6 6 6 6 7
2 2 2 2 2 1 1 0 1 0 0 2 2 2 3 3 3 4 3 3 4 3 4 4 4 3 4 4 5 5 5 5 5 6 6 6 6 6 6 5 6 6 7
3 2 2 2 1 1 1 1 2 1 2 1 2 3 2 2 2 2 3 4 4 4 4 3 3 4 4 5 5 5 5 5 5 6 6 6 6 7 6 6 6 7 7
2 2 2 2 2 2 1 1 0 1 3 4 4 3 3 3 2 3 4 5 5 4 3 3 4 4 5 5 5 6 6 6 6 6 6 6 6 7 7 6 6 7 8
2 1 2 2 2 2 2 2 2 2 2 2 3 5 5 5 4 5 5 4 3 3 3 4 4 5 5 5 6 6 6 6 6 6 6 7 7 7 7 7 7 8 8
2 2 1 2 2 2 2 2 2 3 3 3 3 2 5 5 6 6 5 3 3 4 4 4 4 5 5 5 6 6 6 6 6 6 6 7 7 7 7 7 7 7 8
2 1 2 2 2 2 2 3 3 3 3 3 4 4 3 3 3 3 3 3 4 4 4 5 5 5 6 6 6 6 6 6 6 6 6 6 7 7 8 9 8 8 7
2 2 3 4 3 3 3 3 3 3 3 4 4 3 3 5 5 4 4 4 4 4 4 5 5 5 5 6 6 7 7 7 6 6 7 7 7 7 7 7 7 7 6
2 2 3 3 3 3 4 4 4 4 4 5 4 3 3 5 5 4 4 4 5 4 4 5 5 5 5 6 6 7 7 7 7 7 7 7 7 7 7 7 7 6 6
3 3 3 3 3 3 4 4 4 4 5 5 4 4 4 5 5 5 5 5 5 5 5 5 5 6 5 6 6 6 7 7 7 7 7 8 7 7 7 7 7 7 6
3 3 3 3 3 3 4 4 4 4 4 4 4 4 4 4 5 5 6 6 6 5 5 5 6 7 7 7 6 6 6 6 7 7 9 8 8 7 7 7 7 7 6
3 3 3 3 3 3 4 4 4 4 5 5 5 5 5 5 5 6 6 6 6 6 7 6 6 7 7 8 8 7 6 6 7 8 8 7 8 8 7 7 7 6 6
3 3 3 3 3 4 4 5 5 5 5 5 5 5 5 5 6 6 6 6 6 6 6 6 7 8 8 8 8 6 4 5 6 8 8 7 7 7 7 6 7 6 6
Wind_Direction
154 152 148 148 141 139 139 132 114 71 32 354 348 338 328 330 318 291 296 292 294 304 301 289 287 300 290 285 287 285 280 273 260 267 263 265 239 267 252 238 223 203 164
156 157 157 152 153 162 151 131 124 109 323 334 321 322 309 324 316 302 301 308 299 298 306 312 300 298 302 293 296 287 286 283 260 258 256 249 247 245 248 250 240 217 196
157 158 158 162 164 170 153 138 151 166 290 320 315 310 315 317 312 313 309 311 309 306 307 301 297 298 293 298 288 280 273 262 254 253 255 251 249 246 245 241 235 233 231
159 160 164 170 174 171 167 176 189 223 260 298 299 304 302 300 306 315 307 307 310 310 304 293 292 290 285 284 272 270 268 268 250 248 253 249 239 231 242 247 237 222 244
164 164 164 168 171 177 185 194 201 227 249 273 283 290 289 276 316 321 296 289 301 301 297 289 290 315 342 313 299 294 281 268 260 254 252 252 249 251 258 259 257 245 229
171 170 166 172 180 189 194 197 207 230 266 276 281 285 294 325 41 2 308 293 293 289 292 292 273 247 248 274 310 310 298 276 277 277 268 269 272 268 278 274 270 263 255
176 178 175 180 185 194 203 196 209 230 253 273 287 303 314 355 42 1 307 286 283 288 288 288 286 286 275 279 265 250 261 267 272 274 275 279 276 277 280 271 271 272 274
180 183 180 188 191 197 207 212 219 226 227 254 284 287 295 16 40 336 303 271 280 282 280 278 278 282 292 297 279 273 266 257 255 254 266 275 282 290 277 271 267 252 246
179 182 188 196 198 203 210 213 216 225 228 230 259 275 277 339 31 331 307 276 276 277 274 274 275 271 331 308 274 268 266 260 237 234 255 266 289 282 276 265 261 255 254
180 183 183 188 196 200 204 216 214 217 214 224 231 297 322 330 32 352 311 281 285 282 271 255 206 239 293 290 269 266 266 270 277 258 237 235 242 238 230 249 261 260 262
155 159 177 169 171 173 177 184 193 206 196 207 181 240 283 323 75 55 345 311 305 295 289 281 280 107 265 277 275 268 272 276 269 262 255 246 243 244 239 238 251 260 262
145 139 140 157 174 151 154 164 184 201 198 205 212 245 232 221 53 94 3 302 306 294 291 292 309 337 267 265 264 271 274 267 262 260 258 256 254 253 249 246 246 254 259
146 143 147 144 156 162 173 174 187 214 242 248 262 284 305 315 182 171 196 239 270 276 295 319 287 261 258 247 232 239 249 256 262 263 262 262 262 263 259 248 242 243 245
154 162 165 159 150 144 197 198 204 224 245 260 286 298 308 309 330 332 310 278 253 266 290 272 231 237 245 254 246 243 252 262 270 272 274 272 270 263 256 256 254 251 250
172 190 190 177 152 158 156 263 198 143 313 281 297 311 313 316 358 357 321 320 313 317 305 288 287 280 272 269 269 270 271 268 266 273 275 272 268 268 266 262 258 258 258
196 209 208 193 173 179 156 110 73 130 130 189 267 288 306 330 323 320 297 290 294 292 280 282 294 294 295 289 286 281 273 274 272 268 270 273 271 268 265 260 258 258 260
224 222 216 210 194 204 210 212 213 151 183 193 208 224 244 271 273 272 269 267 261 249 260 286 296 298 297 294 291 287 286 282 277 274 272 270 272 271 270 265 262 261 259
229 214 237 232 232 239 247 256 258 273 286 276 212 200 211 224 236 246 249 256 267 246 278 295 296 294 291 293 295 296 294 288 278 275 275 273 270 270 269 266 260 260 262
228 224 233 252 250 249 250 256 264 270 279 289 284 227 200 215 215 224 224 262 294 296 298 300 299 297 295 295 295 296 294 293 291 284 281 281 276 271 270 271 270 267 265
235 269 265 258 255 259 261 265 270 275 282 294 297 301 293 280 288 274 251 278 290 294 299 299 301 302 301 299 296 293 292 290 293 287 286 283 278 273 271 270 270 268 265
247 219 224 251 257 267 269 269 275 277 281 283 286 302 299 284 282 282 284 285 287 292 296 298 296 295 295 296 296 292 290 289 290 293 292 288 284 279 275 273 270 269 268
262 260 254 262 269 270 278 281 282 280 281 284 288 284 243 271 280 281 287 294 294 293 293 294 295 296 299 300 301 300 297 293 292 290 290 289 288 285 282 277 275 275 270
264 268 267 269 270 268 268 276 283 287 292 296 297 296 292 296 296 293 292 293 296 295 293 292 294 297 301 300 297 294 292 293 294 294 290 287 286 284 284 282 278 276 273
256 260 263 265 266 266 270 279 287 294 299 300 296 294 290 289 290 290 287 290 292 292 290 290 291 294 298 298 295 293 296 302 302 292 290 287 285 284 282 279 277 274 271
258 264 270 276 276 277 280 283 286 291 292 291 290 290 290 291 289 289 289 290 289 289 292 290 290 291 295 297 297 300 318 318 304 300 290 283 284 284 281 277 275 275 268
271 271 272 274 275 278 280 282 287 291 291 292 294 296 297 296 294 292 292 292 291 290 291 288 291 293 296 295 300 316 311 298 292 288 283 280 280 278 279 279 279 274 270
Height
1515 1516 1517 1518 1519 1519 1520 1520 1519 1519 1518 1518 1517 1517 1516 1515 1515 1514 1514 1513 1513 1513 1512 1512 1512 1511 1512 1512 1512 1512 1512 1512 1512 1512 1512 1511 1510 1510 1510 1510 1510 1509 1508
1515 1516 1516 1517 1518 1519 1519 1519 1518 1518 1518 1517 1517 1516 1515 1515 1513 1513 1513 1512 1512 1511 1511 1510 1510 1510 1510 1510 1510 1510 1510 1509 1510 1509 1509 1509 1508 1508 1507 1507 1508 1508 1507
1514 1515 1515 1516 1517 1517 1517 1517 1517 1517 1516 1516 1516 1515 1514 1513 1512 1512 1511 1511 1510 1510 1509 1508 1508 1508 1508 1508 1507 1508 1508 1508 1507 1508 1507 1507 1507 1506 1506 1506 1506 1505 1506
1512 1513 1514 1515 1515 1516 1516 1516 1516 1515 1515 1515 1514 1514 1513 1512 1511 1510 1510 1509 1509 1508 1507 1507 1506 1506 1506 1505 1505 1505 1505 1505 1505 1505 1505 1505 1505 1504 1504 1504 1504 1504 1504
1511 1512 1512 1513 1514 1514 1514 1514 1514 1514 1514 1513 1513 1512 1511 1511 1510 1508 1508 1508 1507 1506 1506 1505 1504 1504 1503 1503 1503 1503 1503 1503 1503 1503 1503 1503 1503 1502 1502 1502 1502 1502 1501
1509 1510 1511 1511 1512 1512 1512 1512 1512 1512 1511 1511 1510 1510 1509 1509 1507 1506 1506 1505 1504 1504 1503 1503 1502 1501 1501 1500 1500 1500 1500 1500 1500 1500 1500 1500 1500 1500 1499 1500 1500 1499 1499
1507 1508 1509 1509 1510 1510 1511 1510 1510 1510 1509 1509 1508 1507 1506 1506 1505 1504 1503 1502 1502 1501 1500 1500 1500 1500 1498 1498 1497 1497 1496 1496 1496 1497 1497 1497 1497 1497 1496 1496 1496 1496 1496
1505 1506 1506 1507 1508 1508 1508 1508 1507 1507 1507 1506 1506 1505 1504 1503 1502 1501 1500 1500 1499 1498 1497 1497 1496 1496 1495 1494 1494 1494 1494 1493 1493 1493 1493 1493 1494 1493 1493 1493 1493 1493 1492
1502 1503 1504 1504 1505 1505 1505 1505 1505 1504 1504 1504 1503 1502 1501 1500 1499 1498 1498 1497 1497 1496 1495 1494 1493 1492 1492 1491 1491 1491 1491 1490 1490 1490 1489 1489 1489 1489 1489 1490 1490 1491 1490
1500 1500 1501 1501 1502 1502 1503 1502 1502 1502 1501 1501 1500 1500 1499 1498 1497 1496 1495 1495 1494 1493 1492 1491 1490 1489 1488 1488 1488 1487 1487 1487 1487 1487 1486 1486 1486 1486 1486 1486 1487 1487 1487
1497 1497 1498 1498 1499 1500 1500 1500 1500 1500 1499 1498 1497 1497 1496 1495 1494 1493 1492 1491 1491 1491 1490 1489 1488 1486 1485 1484 1484 1484 1484 1484 1484 1484 1484 1483 1483 1483 1482 1482 1482 1483 1483
1495 1495 1496 1496 1497 1498 1497 1498 1498 1497 1497 1496 1495 1494 1494 1493 1492 1490 1490 1489 1488 1487 1487 1486 1484 1483 1482 1481 1481 1481 1481 1480 1481 1481 1481 1480 1480 1479 1479 1478 1478 1478 1478
1493 1493 1494 1494 1494 1495 1495 1495 1495 1495 1495 1495 1494 1493 1492 1491 1490 1488 1487 1486 1485 1484 1483 1482 1481 1479 1479 1478 1478 1477 1477 1478 1478 1478 1477 1476 1476 1475 1475 1474 1474 1473 1473
1492 1492 1492 1492 1493 1493 1493 1493 1493 1493 1493 1493 1492 1491 1490 1489 1488 1486 1485 1484 1483 1482 1481 1479 1478 1477 1476 1475 1475 1474 1474 1474 1474 1473 1473 1473 1472 1471 1471 1470 1470 1470 1470
1490 1490 1491 1491 1491 1491 1491 1491 1491 1490 1490 1490 1490 1489 1488 1486 1485 1483 1482 1481 1480 1479 1477 1477 1476 1475 1474 1473 1473 1472 1471 1470 1470 1469 1469 1468 1468 1467 1467 1466 1466 1466 1466
1488 1489 1489 1489 1489 1489 1489 1489 1488 1488 1488 1487 1486 1486 1484 1484 1482 1481 1480 1479 1478 1476 1475 1475 1474 1473 1472 1471 1470 1469 1467 1466 1465 1465 1464 1463 1463 1462 1462 1462 1461 1461 1461
1487 1487 1487 1487 1487 1487 1487 1487 1486 1486 1485 1484 1483 1483 1482 1481 1479 1478 1477 1476 1475 1474 1473 1473 1471 1470 1469 1468 1467 1465 1464 1463 1462 1461 1460 1459 1458 1458 1458 1457 1457 1456 1456
1486 1486 1485 1485 1485 1485 1485 1485 1485 1484 1484 1482 1481 1480 1479 1478 1477 1475 1474 1474 1473 1472 1471 1470 1469 1468 1466 1465 1464 1462 1460 1459 1458 1457 1456 1455 1454 1453 1453 1452 1452 1451 1451
1484 1484 1484 1484 1484 1484 1483 1483 1483 1482 1482 1480 1479 1478 1477 1475 1474 1473 1472 1471 1470 1470 1469 1467 1466 1465 1463 1462 1460 1458 1457 1455 1454 1453 1452 1451 1450 1449 1448 1448 1448 1447 1446
1483 1482 1482 1482 1482 1482 1481 1481 1481 1480 1479 1478 1477 1476 1475 1473 1472 1471 1470 1469 1468 1467 1466 1464 1463 1461 1460 1458 1456 1454 1453 1451 1450 1448 1447 1446 1445 1445 1444 1443 1443 1442 1441
1481 1481 1480 1480 1480 1480 1479 1479 1478 1477 1476 1475 1474 1473 1471 1470 1469 1468 1467 1466 1465 1464 1462 1461 1459 1457 1456 1454 1453 1451 1449 1447 1446 1445 1443 1442 1441 1440 1440 1439 1438 1438 1437
1479 1479 1479 1479 1478 1477 1477 1477 1476 1475 1473 1472 1471 1470 1468 1467 1466 1465 1464 1463 1462 1461 1459 1457 1456 1454 1452 1450 1449 1447 1445 1444 1442 1441 1440 1438 1437 1436 1435 1434 1434 1433 1433
1477 1477 1477 1476 1476 1475 1474 1474 1473 1472 1471 1469 1468 1467 1465 1464 1463 1462 1461 1460 1458 1457 1455 1454 1452 1450 1448 1446 1444 1443 1441 1439 1438 1437 1435 1434 1433 1432 1431 1430 1429 1429 1428
1475 1475 1475 1474 1473 1473 1472 1471 1470 1469 1468 1466 1465 1464 1462 1461 1460 1458 1457 1456 1455 1453 1451 1450 1448 1446 1444 1442 1440 1439 1437 1435 1434 1432 1431 1429 1428 1428 1427 1426 1425 1425 1425
1473 1472 1472 1471 1471 1470 1469 1468 1467 1466 1465 1463 1462 1461 1459 1458 1456 1455 1453 1452 1451 1449 1447 1446 1444 1442 1440 1438 1436 1434 1432 1430 1429 1428 1427 1425 1424 1423 1423 1422 1421 1421 1421
1470 1470 1469 1468 1468 1467 1466 1465 1464 1462 1461 1460 1458 1457 1456 1454 1453 1451 1449 1448 1447 1445 1444 1442 1441 1438 1436 1434 1432 1430 1428 1426 1425 1423 1423 1422 1420 1420 1419 1418 1418 1417 1417